K5AJS Weather Reports


time (UTC)temp
C
wind
direction
speed
KPH
gust
KPH
rain 1hr
cm
rain 24hr
cm
rain mn
cm
humidity
%
barometer
mb
20260502162649 20 102 3.2 6.4 0.00 0.00 0.00 58 1020.4
20260502162149 20 119 0.0 6.4 0.00 0.00 0.00 63 1020.4
20260502161650 20 52 1.6 8.0 0.00 0.00 0.00 61 1020.5
20260502161149 20 51 3.2 6.4 0.00 0.00 0.00 59 1020.5
20260502160649 20 89 1.6 4.8 0.00 0.00 0.00 60 1020.5
20260502160149 20 67 3.2 6.4 0.00 0.00 0.00 59 1020.5
20260502152149 18 99 1.6 6.4 0.00 0.00 0.00 68 1020.2
20260502151649 18 60 3.2 6.4 0.00 0.00 0.00 69 1020.2
20260502151149 18 51 4.8 8.0 0.00 0.00 0.00 70 1020.2
20260502150650 18 35 0.0 1.6 0.00 0.00 0.00 71 1020.3
20260502150149 18 188 0.0 3.2 0.00 0.00 0.00 73 1020.3
20260502130649 13 38 1.6 3.2 0.00 0.00 0.00 94 1019.2
20260502130149 12 15 1.6 3.2 0.00 0.00 0.00 94 1019.0
20260502123650 12 29 3.2 6.4 0.00 0.00 0.00 94 1018.7
20260502123153 12 27 0.0 1.6 0.00 0.00 0.00 94 1018.6
20260502122650 12 24 0.0 0.0 0.00 0.00 0.00 94 1018.6
20260502122150 12 43 1.6 3.2 0.00 0.00 0.00 94 1018.5
20260502121650 12 11 1.6 3.2 0.00 0.00 0.00 94 1018.3
20260502121150 11 13 1.6 3.2 0.00 0.00 0.00 94 1018.2
20260502120649 11 11 1.6 3.2 0.00 0.00 0.00 94 1018.1
20260502120150 11 23 1.6 3.2 0.00 0.00 0.00 94 1018.0
20260502115650 11 49 1.6 3.2 0.00 0.00 0.00 94 1018.0
20260502115150 11 24 0.0 3.2 0.00 0.00 0.00 94 1018.1
20260502114651 11 26 1.6 3.2 0.00 0.00 0.00 94 1018.1
20260502114149 11 26 1.6 3.2 0.00 0.00 0.00 94 1018.0
20260502113650 11 33 0.0 0.0 0.00 0.00 0.00 94 1017.9
20260502113149 12 15 1.6 3.2 0.00 0.00 0.00 94 1017.8
20260502112649 12 49 1.6 3.2 0.00 0.00 0.00 94 1017.7
20260502112149 12 6 0.0 0.0 0.00 0.00 0.00 94 1017.7
20260502111649 12 33 1.6 3.2 0.00 0.00 0.00 94 1017.6
20260502111150 12 24 3.2 4.8 0.00 0.00 0.00 94 1017.6
20260502110650 12 19 1.6 3.2 0.00 0.00 0.00 94 1017.5
20260502110149 12 20 1.6 3.2 0.00 0.00 0.00 94 1017.4
20260502105650 12 25 1.6 3.2 0.00 0.00 0.00 93 1017.5
20260502105150 12 24 1.6 3.2 0.00 0.00 0.00 93 1017.5
20260502104649 12 0 0.0 0.0 0.00 0.00 0.00 93 1017.5
20260502104149 12 0 0.0 0.0 0.00 0.00 0.00 92 1017.4
20260502103650 12 0 0.0 0.0 0.00 0.00 0.00 92 1017.4
20260502103149 12 0 0.0 0.0 0.00 0.00 0.00 92 1017.4
20260502102649 12 0 0.0 0.0 0.00 0.00 0.00 91 1017.3
20260502102150 12 0 0.0 0.0 0.00 0.00 0.00 91 1017.3
20260502101650 12 0 0.0 0.0 0.00 0.00 0.00 91 1017.2
20260502101150 12 12 0.0 0.0 0.00 0.00 0.00 91 1017.0
20260502100650 12 22 1.6 1.6 0.00 0.00 0.00 91 1016.9
20260502100149 12 66 1.6 3.2 0.00 0.00 0.00 91 1016.8
20260502091149 13 42 1.6 1.6 0.00 0.00 0.00 92 1015.8
20260502090651 13 64 3.2 3.2 0.00 0.00 0.00 92 1015.8
20260502090150 13 11 1.6 1.6 0.00 0.00 0.00 93 1015.8
20260502071152 13 57 3.2 4.8 0.00 0.00 0.00 93 1015.7
20260502070649 13 1 3.2 3.2 0.00 0.00 0.00 93 1015.8
20260502070149 13 65 3.2 3.2 0.00 0.00 0.00 93 1015.7
20260502065650 13 28 1.6 3.2 0.00 0.00 0.00 93 1015.6
20260502065149 13 56 1.6 3.2 0.00 0.00 0.00 93 1015.6
20260502064649 13 39 0.0 1.6 0.00 0.00 0.00 93 1015.7
20260502064149 13 39 4.8 6.4 0.00 0.00 0.00 94 1015.7
20260502063649 13 46 3.2 4.8 0.00 0.00 0.00 94 1015.7
20260502063150 13 17 1.6 3.2 0.00 0.00 0.00 94 1015.8
20260502062649 13 42 3.2 4.8 0.00 0.00 0.00 94 1015.7
20260502062149 13 107 1.6 1.6 0.00 0.00 0.00 94 1015.6
20260502061649 13 18 3.2 4.8 0.00 0.00 0.00 94 1015.6
20260502061149 13 79 3.2 3.2 0.00 0.00 0.00 95 1015.5
20260502060649 13 26 4.8 8.0 0.00 0.00 0.00 95 1015.4
20260502060150 13 13 4.8 6.4 0.00 0.00 0.00 95 1015.4
20260502055649 13 47 4.8 6.4 0.00 0.00 0.00 95 1015.3
20260502055149 13 352 3.2 4.8 0.00 0.00 0.00 95 1015.4
20260502054649 13 355 1.6 3.2 0.00 0.00 0.00 95 1015.3
20260502054149 13 49 3.2 4.8 0.00 0.00 0.00 96 1015.4
20260502053650 13 23 4.8 4.8 0.00 0.00 0.00 96 1015.4
20260502053151 13 61 1.6 3.2 0.00 0.00 0.00 96 1015.2
20260502052649 13 74 1.6 3.2 0.00 0.00 0.00 96 1015.3
20260502052149 13 53 3.2 3.2 0.00 0.00 0.00 96 1015.3
20260502051649 13 61 3.2 4.8 0.00 0.00 0.00 96 1015.2
20260502051149 13 101 1.6 3.2 0.00 0.00 0.00 96 1015.2
20260502050649 13 117 1.6 3.2 0.00 0.00 0.00 96 1015.2
20260502050149 13 41 3.2 4.8 0.00 0.00 0.00 96 1015.2
20260502045650 13 62 3.2 3.2 0.00 0.00 5.41 96 1015.2
20260502045149 13 33 3.2 3.2 0.00 0.00 5.41 96 1015.1
20260502044650 13 49 1.6 1.6 0.00 0.00 5.41 97 1015.2
20260502044149 13 56 3.2 6.4 0.00 0.00 5.41 97 1015.1
20260502043649 13 20 1.6 3.2 0.00 0.00 5.41 97 1015.1
20260502043149 13 45 3.2 6.4 0.00 0.00 5.41 97 1015.1
20260502042649 13 24 6.4 12.9 0.00 0.00 5.41 96 1015.1
20260502042150 13 36 6.4 9.7 0.00 0.00 5.41 97 1015.2
20260502041650 13 35 4.8 8.0 0.00 0.00 5.41 97 1015.4
20260502041152 13 14 1.6 3.2 0.00 0.00 5.41 97 1015.3
20260502040649 13 42 3.2 3.2 0.00 0.00 5.41 97 1015.3
20260502040149 13 42 3.2 4.8 0.00 0.00 5.41 97 1015.1
20260502035649 13 45 1.6 4.8 0.00 0.00 5.41 97 1015.0
20260502035150 13 37 1.6 3.2 0.00 0.00 5.41 97 1014.9
20260502034650 13 40 3.2 6.4 0.00 0.00 5.41 97 1015.0
20260502034151 13 26 4.8 8.0 0.00 0.00 5.41 97 1014.8
20260502033649 13 26 6.4 8.0 0.00 0.00 5.41 97 1014.9
20260502033149 13 1 3.2 4.8 0.00 0.00 5.41 97 1015.0
20260502032651 13 26 3.2 8.0 0.00 0.00 5.41 97 1014.9
20260502032149 13 54 4.8 11.3 0.00 0.00 5.41 97 1014.7
20260502031649 14 41 3.2 6.4 0.00 0.00 5.41 97 1014.6
20260502031151 14 28 6.4 9.7 0.03 0.00 5.41 98 1014.5
20260502030649 14 11 6.4 8.0 0.03 0.00 5.41 98 1014.4
20260502030149 14 44 3.2 4.8 0.03 0.00 5.41 98 1014.1
20260502025649 14 8 3.2 6.4 0.05 0.00 5.41 98 1013.9
20260502025149 15 65 3.2 4.8 0.08 0.00 5.41 98 1014.0
20260502024649 15 70 1.6 3.2 0.08 0.00 5.41 98 1013.8
20260502024149 15 92 3.2 6.4 0.08 0.00 5.41 98 1013.6
20260502023649 15 50 1.6 3.2 0.08 0.00 5.41 98 1013.4
20260502023149 15 5 1.6 3.2 0.08 0.00 5.41 98 1013.4
20260502022650 15 22 3.2 6.4 0.08 0.00 5.41 98 1013.2
20260502022149 15 24 3.2 6.4 0.08 0.00 5.41 98 1013.1
20260502021649 15 346 1.6 4.8 0.08 0.00 5.41 98 1013.1
20260502021150 15 56 3.2 3.2 0.05 0.00 5.41 98 1013.0
20260502020650 15 59 3.2 4.8 0.08 0.00 5.38 98 1012.8
20260502020149 15 58 3.2 3.2 0.08 0.00 5.38 98 1012.9
20260502015650 15 52 3.2 3.2 0.05 0.00 5.38 98 1013.1
20260502015151 15 27 3.2 4.8 0.05 0.00 5.36 98 1013.1
20260502014649 15 69 1.6 1.6 0.08 0.00 5.33 98 1013.1
20260502014150 15 47 3.2 6.4 0.08 0.00 5.33 98 1012.9
20260502013650 15 44 3.2 3.2 0.08 0.00 5.33 98 1012.9
20260502013149 15 50 1.6 3.2 0.05 0.00 5.33 98 1013.0
20260502012650 15 27 3.2 3.2 0.05 0.00 5.31 98 1012.9
20260502012149 15 34 3.2 4.8 0.05 0.00 5.28 98 1012.8
20260502011650 15 41 3.2 4.8 0.05 0.00 5.28 98 1012.8
20260502011149 15 38 3.2 4.8 0.05 0.00 5.28 98 1012.7
20260502010649 15 358 0.0 1.6 0.08 0.00 5.28 98 1012.7
20260502010149 15 55 1.6 3.2 0.08 0.00 5.31 97 1012.4
20260502005651 15 30 3.2 4.8 0.05 0.00 5.31 98 1012.1
20260502005150 15 34 3.2 6.4 0.05 0.00 5.31 98 1012.1
20260502004649 15 46 1.6 4.8 0.23 0.00 5.28 97 1012.0
20260502004149 15 51 3.2 4.8 0.28 0.00 5.26 97 1011.9
20260502003649 15 43 3.2 6.4 0.28 0.00 5.26 97 1012.1
20260502003149 15 49 1.6 3.2 0.20 0.00 5.26 97 1012.0
20260502002650 15 26 3.2 6.4 0.20 0.00 5.26 98 1011.7
20260502002149 15 59 1.6 4.8 0.20 0.00 5.11 97 1011.6
20260502001649 15 39 3.2 8.0 0.25 0.00 5.11 97 1011.5
20260502001149 15 58 3.2 8.0 0.25 0.00 5.08 97 1011.3
20260502000650 15 51 4.8 6.4 0.25 0.00 5.08 97 1011.5
20260502000149 15 66 3.2 8.0 0.25 0.00 5.05 97 1011.5
20260501235649 16 52 3.2 4.8 0.43 0.00 5.05 97 1011.4
20260501235149 16 18 3.2 4.8 0.30 0.00 5.13 97 1011.3
20260501234650 16 66 3.2 6.4 0.36 0.00 5.11 97 1011.2
20260501234150 16 60 3.2 6.4 0.43 0.00 5.03 97 1011.4
20260501233652 16 337 1.6 3.2 0.43 0.00 4.93 97 1011.9
20260501233150 16 344 3.2 4.8 0.43 0.00 4.90 97 1011.8
20260501232651 16 10 3.2 6.4 0.64 0.00 4.88 97 1010.9
20260501232150 16 68 3.2 6.4 0.64 0.00 5.00 97 1009.7
20260501231649 16 77 3.2 3.2 0.51 0.00 5.00 97 1009.4
20260501231150 16 33 3.2 4.8 0.51 0.00 5.00 97 1009.6
20260501230649 16 66 4.8 8.0 0.30 0.00 4.88 97 1009.3
20260501230149 16 45 3.2 6.4 0.33 0.00 4.75 97 1009.9
20260501225650 16 74 4.8 8.0 0.33 0.00 4.72 97 1010.7
20260501225149 16 45 6.4 9.7 0.25 0.00 4.67 97 1010.7
20260501224649 16 94 3.2 4.8 0.13 0.00 4.67 97 1010.1
20260501224150 16 98 4.8 4.8 0.13 0.00 4.65 97 1010.0
20260501223651 16 48 4.8 8.0 0.13 0.00 4.57 97 1010.0
20260501223149 16 56 6.4 9.7 0.13 0.00 4.47 97 1009.9
20260501222649 16 53 6.4 8.0 0.03 0.00 4.42 97 1010.0
20260501222150 16 71 4.8 4.8 0.08 0.00 4.24 98 1009.7
20260501221650 16 52 4.8 8.0 0.10 0.00 4.24 98 1009.9
20260501221150 16 68 4.8 6.4 0.10 0.00 4.24 98 1009.3
20260501220649 16 73 3.2 6.4 0.15 0.00 4.24 98 1009.3
20260501220150 17 244 6.4 9.7 0.15 0.00 4.22 98 1009.5
20260501215649 17 241 4.8 14.5 0.15 0.00 4.22 98 1009.6
20260501215149 17 219 6.4 9.7 0.15 0.00 4.22 98 1009.7
20260501214649 17 253 3.2 8.0 0.25 0.00 4.22 98 1010.0
20260501214149 17 233 6.4 11.3 0.25 0.00 4.22 98 1010.1
20260501213649 17 331 4.8 6.4 0.25 0.00 4.22 98 1010.3
20260501213149 17 231 4.8 6.4 0.25 0.00 4.22 98 1010.5
20260501212650 17 236 4.8 6.4 0.25 0.00 4.22 98 1010.4
20260501212150 17 254 4.8 8.0 0.25 0.00 4.17 98 1010.6
20260501211650 17 242 6.4 8.0 0.28 0.00 4.14 98 1010.2
20260501211150 17 216 4.8 9.7 0.25 0.00 4.09 98 1010.0
20260501210649 17 238 4.8 8.0 0.30 0.00 4.09 97 1010.5
20260501210149 17 226 8.0 24.1 0.33 0.00 4.09 97 1010.1
20260501205650 17 302 6.4 8.0 0.33 0.00 4.06 97 1010.0
20260501205149 17 239 1.6 3.2 0.36 0.00 4.06 97 1009.8
20260501204650 17 274 3.2 3.2 0.30 0.00 4.01 97 1009.8
20260501204150 17 234 3.2 8.0 0.28 0.00 3.99 97 1009.6
20260501203649 17 199 4.8 8.0 0.25 0.00 3.96 97 1008.3
20260501203149 17 226 4.8 9.7 0.23 0.00 3.91 97 1008.7
20260501202649 17 168 3.2 14.5 0.20 0.00 3.91 97 1009.2
20260501202149 17 226 4.8 6.4 0.20 0.00 3.89 97 1009.0
20260501201649 17 224 4.8 9.7 0.18 0.00 3.86 97 1008.6
20260501201149 17 233 6.4 11.3 0.15 0.00 3.84 97 1008.4
20260501200649 17 226 9.7 19.3 0.15 0.00 3.81 97 1008.9
20260501200149 17 207 6.4 17.7 0.18 0.00 3.78 97 1009.3
20260501195649 17 64 9.7 27.4 0.13 0.00 3.73 97 1008.9
20260501195151 17 52 8.0 16.1 0.13 0.00 3.71 97 1009.0
20260501194649 17 56 8.0 16.1 0.13 0.00 3.71 97 1009.1
20260501194150 17 61 6.4 14.5 0.13 0.00 3.71 97 1008.6
20260501193649 17 54 8.0 16.1 0.13 0.00 3.71 97 1008.7
20260501193149 17 60 8.0 20.9 0.15 0.00 3.71 97 1008.8
20260501192649 17 52 9.7 17.7 0.18 0.00 3.71 97 1008.5
20260501192151 17 51 8.0 17.7 0.18 0.00 3.66 97 1008.7
20260501191649 17 58 9.7 20.9 0.18 0.00 3.66 97 1008.8
20260501191150 17 56 8.0 17.7 0.25 0.00 3.66 97 1008.9
20260501190649 17 53 8.0 16.1 0.33 0.00 3.63 97 1009.1
20260501190150 17 51 6.4 17.7 0.33 0.00 3.58 97 1009.3
20260501185150 17 51 9.7 16.1 0.38 0.00 3.58 97 1009.8
20260501181649 17 47 9.7 17.7 0.56 0.00 3.45 97 1008.4
20260501180649 17 48 11.3 20.9 0.38 0.00 3.23 97 1010.6
20260501180149 17 48 9.7 20.9 0.36 0.00 3.43 97 1009.9
20260501175649 17 48 9.7 16.1 0.38 0.00 3.43 97 1009.2
20260501175149 17 48 11.3 25.7 0.43 0.00 3.48 97 1009.0
20260501174650 17 46 8.0 19.3 0.48 0.00 3.45 97 1009.0
20260501174150 17 47 9.7 19.3 0.84 0.00 3.35 97 1009.5
20260501173649 17 49 9.7 27.4 0.86 0.00 3.25 97 1010.4
20260501173155 17 54 14.5 33.8 0.81 0.00 3.17 97 1010.3
20260501172150 17 42 8.0 9.7 0.69 0.00 3.45 97 1009.6
20260501171650 17 43 8.0 11.3 0.69 0.00 3.45 97 1010.0
20260501170649 17 41 9.7 12.9 1.17 0.00 3.35 97 1010.3
20260501170149 17 43 8.0 9.7 1.80 0.00 3.05 97 1010.1
20260501165650 17 50 8.0 8.0 1.93 0.00 3.00 97 1010.1
20260501165150 17 41 9.7 11.3 1.93 0.00 2.95 97 1010.1
20260501164649 17 36 16.1 30.6 1.93 0.00 2.90 97 1010.6
20260501164151 17 52 3.2 6.4 1.63 0.00 2.59 97 1010.7
20260501163650 17 43 3.2 4.8 1.60 0.00 2.51 97 1011.2
20260501163150 17 41 6.4 19.3 1.57 0.00 2.49 97 1010.8